Latest Weather Observations for Moruya Airport

IDN60901

Issued at 7:55 pm EST Friday 1 August 2014 (issued every 10 minutes, with the page automatically refreshed every 10 minutes)

About weather observations | Map of Canberra area stations | Latest observations for Canberra area | Other Formats
Station Details ID: 069148 Name: MORUYA AIRPORT AWS Lat: -35.90 Lon: 150.14 Height: 4.0 m
Data from the previous 72 hours. | See also: Recent months for locations in Aust Capital Territory
Date/Time
EST
Tmp

°C
App
Tmp
°C
Dew
Point
°C
Rel
Hum
%
Delta-T

°C
Wind Press
QNH
hPa
Press
MSL
hPa
Rain
since
9 am
mm
Dir
 
Spd
km/h
Gust
km/h
Spd
kts
Gust
kts
01/07:30pm 8.0 4.1 -1.2 52 3.5 N 9 13 5 7 1010.7 - 0.0
01/07:00pm 8.7 5.8 -0.9 51 3.7 N 4 7 2 4 1010.1 1010.1 0.0
01/06:30pm 10.6 7.3 -1.1 44 4.6 N 6 13 3 7 1009.9 - 0.0
01/06:00pm 11.0 6.9 -0.5 45 4.6 NNW 11 20 6 11 1008.9 1008.9 0.0
01/05:30pm 11.6 8.3 -1.2 41 5.1 N 6 11 3 6 1008.1 - 0.0
01/05:00pm 12.3 6.8 -2.0 37 5.6 NW 17 30 9 16 1006.6 1006.6 0.0
01/04:30pm 13.4 7.0 -1.7 35 6.0 NW 22 41 12 22 1006.1 - 0.0
01/04:00pm 14.2 7.8 -1.4 34 6.4 NW 22 33 12 18 1005.3 1005.3 0.0
01/03:30pm 15.3 9.0 -3.6 27 7.4 WNW 20 32 11 17 1004.9 - 0.0
01/03:00pm 16.0 10.3 -4.0 25 7.9 NW 17 37 9 20 1004.4 1004.4 0.0
01/02:30pm 16.4 10.1 -4.2 24 8.1 WNW 20 41 11 22 1004.0 - 0.0
01/02:00pm 16.5 10.1 -5.3 22 8.4 WNW 20 39 11 21 1003.8 1003.8 0.0
01/01:30pm 16.3 9.5 -5.4 22 8.3 WNW 22 32 12 17 1003.5 - 0.0
01/01:07pm 16.0 7.9 -6.3 21 8.3 WNW 28 54 15 29 1003.5 - 0.0
01/01:00pm 15.9 8.6 -6.4 21 8.3 WNW 24 54 13 29 1003.3 1003.3 0.0
01/12:30pm 16.1 10.2 -5.6 22 8.2 WNW 17 33 9 18 1003.7 - 0.0
01/12:00pm 15.8 9.6 -5.3 23 8.0 WNW 19 43 10 23 1003.6 1003.6 0.0
01/11:30am 15.7 9.3 -5.3 23 8.0 WNW 20 37 11 20 1003.5 - 0.0
01/11:00am 15.2 8.7 -5.8 23 7.9 W 20 35 11 19 1003.8 1003.8 0.0
01/10:30am 14.7 7.6 -4.1 27 7.2 W 24 43 13 23 1004.0 - 0.0
01/10:00am 15.0 9.8 -2.4 30 7.0 WNW 15 26 8 14 1004.4 1004.4 0.0
01/09:30am 14.4 8.8 -2.5 31 6.7 NW 17 26 9 14 1004.6 - 0.0
01/09:00am 13.7 8.7 -1.1 36 6.0 WNW 15 28 8 15 1004.7 1004.7 0.0
01/08:30am 12.6 9.6 4.1 56 3.8 WNW 9 15 5 8 1004.8 - 0.0
01/08:00am 10.7 9.1 8.8 88 0.9 WNW 7 11 4 6 1004.7 1004.7 0.0
01/07:30am 8.9 6.5 8.5 97 0.2 NW 11 13 6 7 1004.3 - 0.0
01/07:00am 7.8 5.9 6.6 92 0.6 NW 6 11 3 6 1003.7 1003.7 0.0
01/06:30am 10.0 8.4 7.9 87 1.0 NW 6 13 3 7 1003.6 - 0.0
01/06:00am 11.6 9.9 8.3 80 1.6 W 7 15 4 8 1003.1 1003.1 0.0
01/05:30am 12.5 9.9 9.5 82 1.5 S 13 24 7 13 1002.8 - 0.0
01/05:00am 12.3 8.2 8.8 79 1.8 S 20 30 11 16 1002.7 1002.7 0.0
01/04:30am 12.7 7.7 9.5 81 1.6 S 26 35 14 19 1001.9 - 0.0
01/04:00am 13.2 7.6 10.2 82 1.6 SSE 30 43 16 23 1001.6 1001.6 0.0
01/03:30am 14.3 9.0 9.9 75 2.3 S 28 39 15 21 1000.8 - 0.0
01/03:00am 17.7 12.3 -1.0 28 8.0 N 17 22 9 12 1000.2 1000.2 0.0
01/02:30am 18.4 13.0 -1.4 26 8.4 N 17 26 9 14 999.8 - 0.0
01/02:00am 19.1 13.7 -1.4 25 8.8 N 17 26 9 14 999.8 999.8 0.0
01/01:30am 19.7 13.9 -1.4 24 9.0 NNW 19 28 10 15 999.6 - 0.0
01/01:00am 19.9 14.1 -1.8 23 9.3 NNW 19 35 10 19 999.6 999.6 0.0
01/12:30am 20.2 13.7 -2.2 22 9.5 NNW 22 37 12 20 999.4 - 0.0
01/12:00am 20.3 13.5 -2.1 22 9.6 NNW 24 50 13 27 999.7 999.7 0.0
 
Date/Time
EST
Tmp

°C
App
Tmp
°C
Dew
Point
°C
Rel
Hum
%
Delta-T

°C
Wind Press
QNH
hPa
Press
MSL
hPa
Rain
since
9 am
mm
Dir
 
Spd
km/h
Gust
km/h
Spd
kts
Gust
kts
31/11:37pm 20.7 13.1 -2.4 21 9.8 NW 28 46 15 25 999.8 - 0.0
31/11:30pm 20.4 14.3 -2.0 22 9.5 NW 20 41 11 22 1000.0 - 0.0
31/11:00pm 20.3 14.2 -2.1 22 9.6 NW 20 37 11 20 1000.3 1000.3 0.0
31/10:30pm 20.5 14.5 -1.3 23 9.4 NW 20 37 11 20 1000.3 - 0.0
31/10:00pm 20.4 13.7 -1.4 23 9.4 NNW 24 39 13 21 1000.3 1000.3 0.0
31/09:30pm 20.7 13.6 -1.2 23 9.5 NW 26 54 14 29 1000.4 - 0.0
31/09:01pm 20.9 13.5 -1.0 23 9.6 NW 28 61 15 33 1000.3 - 0.0
31/09:00pm 21.0 13.9 -0.9 23 9.6 NW 26 61 14 33 1000.2 1000.2 0.0
31/08:30pm 20.8 13.0 -0.5 24 9.4 NW 30 54 16 29 1000.3 - 0.0
31/08:00pm 21.1 13.4 -0.2 24 9.5 NW 30 56 16 30 999.7 999.7 0.0
31/07:49pm 21.1 13.8 -0.2 24 9.5 NW 28 48 15 26 999.6 - 0.0
31/07:30pm 20.9 14.4 0.2 25 9.2 NW 24 50 13 27 999.4 - 0.0
31/07:00pm 21.1 13.4 -0.2 24 9.5 NW 30 52 16 28 999.3 999.3 0.0
31/06:31pm 20.9 13.6 0.2 25 9.2 NW 28 52 15 28 999.0 - 0.0
31/06:30pm 21.0 14.1 0.2 25 9.3 NW 26 46 14 25 999.0 - 0.0
31/06:00pm 20.8 13.6 0.6 26 9.1 NNW 28 50 15 27 999.2 999.2 0.0
31/05:31pm 20.7 13.5 0.5 26 9.1 NW 28 57 15 31 999.1 - 0.0
31/05:30pm 20.7 13.9 0.5 26 9.1 NW 26 57 14 31 999.1 - 0.0
31/05:16pm 20.9 13.7 0.7 26 9.1 NW 28 54 15 29 999.0 - 0.0
31/05:00pm 20.6 14.2 1.0 27 8.9 NW 24 52 13 28 999.2 999.2 0.0
31/04:30pm 21.5 13.5 0.7 25 9.4 NW 32 65 17 35 999.0 - 0.0
31/04:00pm 22.0 14.4 0.5 24 9.8 NNW 30 61 16 33 999.0 999.0 0.0
31/03:30pm 22.3 13.7 0.2 23 10.0 NNW 35 74 19 40 999.3 - 0.0
31/03:22pm 22.3 14.0 -0.4 22 10.1 NW 33 74 18 40 999.3 - 0.0
31/03:00pm 22.7 15.3 1.7 25 9.9 NNW 30 50 16 27 999.6 999.6 0.0
31/02:30pm 23.0 15.9 1.4 24 10.0 NNW 28 48 15 26 999.9 - 0.0
31/02:00pm 23.1 15.1 1.4 24 10.2 NNW 33 52 18 28 1000.3 1000.3 0.0
31/01:44pm 23.1 16.0 1.4 24 10.1 NNW 28 59 15 32 1000.3 - 0.0
31/01:30pm 23.4 16.7 1.7 24 10.2 NW 26 44 14 24 1000.7 - 0.0
31/01:00pm 23.4 15.8 0.5 22 10.6 NNW 30 52 16 28 1001.3 1001.3 0.0
31/12:30pm 23.0 15.1 0.8 23 10.2 NNW 32 56 17 30 1002.1 - 0.0
31/12:04pm 22.8 15.8 1.8 25 9.8 NNW 28 54 15 29 1002.9 - 0.0
31/12:00pm 22.8 16.2 2.3 26 9.7 NNW 26 46 14 25 1003.0 1003.0 0.0
31/11:55am 22.8 15.9 2.3 26 9.7 NNW 28 46 15 25 1003.1 - 0.0
31/11:30am 22.1 15.6 2.8 28 9.2 NNW 26 43 14 23 1004.0 - 0.0
31/11:00am 21.8 16.2 3.5 30 8.8 NNW 22 35 12 19 1004.9 1004.9 0.0
31/10:30am 21.1 15.9 3.3 31 8.5 N 20 30 11 16 1005.5 - 0.0
31/10:00am 21.0 16.1 4.1 33 8.2 N 19 24 10 13 1006.3 1006.3 0.0
31/09:30am 20.0 14.3 4.9 37 7.3 N 24 37 13 20 1006.8 - 0.0
31/09:00am 18.7 13.1 5.5 42 6.5 NNE 24 33 13 18 1007.3 1007.3 0.0
31/08:30am 17.8 13.2 5.7 45 5.9 N 19 35 10 19 1007.9 - 0.0
31/08:00am 16.2 12.9 6.6 53 4.7 N 13 20 7 11 1008.2 1008.2 0.0
31/07:30am 12.9 10.2 5.8 62 3.3 N 9 13 5 7 1008.5 - 0.0
31/07:00am 14.2 10.8 5.8 57 4.0 N 13 20 7 11 1008.5 1008.5 0.0
31/06:30am 14.3 11.0 6.4 59 3.8 N 13 17 7 9 1008.5 - 0.0
31/06:00am 12.8 8.8 6.6 66 3.0 N 17 22 9 12 1008.5 1008.5 0.0
31/05:30am 12.4 8.2 5.8 64 3.1 N 17 20 9 11 1008.6 - 0.0
31/05:00am 13.3 9.1 5.7 60 3.6 N 17 20 9 11 1008.7 1008.7 0.0
31/04:30am 12.6 9.0 4.8 59 3.6 N 13 17 7 9 1008.9 - 0.0
31/04:00am 12.2 9.8 6.9 70 2.5 N 9 13 5 7 1009.0 1009.0 0.0
31/03:30am 11.0 8.7 5.5 69 2.5 N 7 11 4 6 1009.3 - 0.0
31/03:00am 14.7 11.5 6.8 59 3.9 N 13 19 7 10 1009.5 1009.5 0.0
31/02:30am 15.0 12.2 6.8 58 4.0 N 11 17 6 9 1009.7 - 0.0
31/02:00am 15.9 12.7 6.9 55 4.4 N 13 19 7 10 1010.0 1010.0 0.0
31/01:30am 16.6 13.0 6.7 52 4.9 N 15 20 8 11 1010.4 - 0.0
31/01:00am 17.5 13.4 6.4 48 5.5 NNW 17 24 9 13 1010.5 1010.5 0.0
31/12:30am 17.2 14.1 7.3 52 5.0 NW 13 22 7 12 1010.5 - 0.0
31/12:00am 13.9 11.3 6.3 60 3.6 NW 9 19 5 10 1011.0 1011.0 0.0
 
Date/Time
EST
Tmp

°C
App
Tmp
°C
Dew
Point
°C
Rel
Hum
%
Delta-T

°C
Wind Press
QNH
hPa
Press
MSL
hPa
Rain
since
9 am
mm
Dir
 
Spd
km/h
Gust
km/h
Spd
kts
Gust
kts
30/11:30pm 17.0 13.9 7.1 52 4.9 N 13 20 7 11 1011.3 - 0.0
30/11:00pm 16.5 13.4 7.4 55 4.5 NNW 13 20 7 11 1011.5 1011.5 0.0
30/10:30pm 15.1 12.1 7.6 61 3.7 N 13 19 7 10 1011.8 - 0.0
30/10:00pm 11.4 8.5 6.7 73 2.2 N 11 15 6 8 1012.1 1012.1 0.0
30/09:30pm 12.9 10.4 6.7 66 3.0 NNW 9 13 5 7 1012.3 - 0.0
30/09:00pm 12.4 10.0 6.9 69 2.6 NNW 9 15 5 8 1012.5 1012.5 0.0
30/08:30pm 13.2 10.5 7.2 67 2.9 NNW 11 17 6 9 1012.6 - 0.0
30/08:00pm 14.4 11.2 7.0 61 3.6 N 13 19 7 10 1012.7 1012.7 0.0
30/07:30pm 13.5 11.4 6.8 64 3.2 N 7 11 4 6 1012.7 - 0.0
30/07:00pm 16.5 14.1 7.2 54 4.6 NNW 9 13 5 7 1012.8 1012.8 0.0
30/06:30pm 17.4 15.4 7.2 51 5.1 NNW 7 11 4 6 1012.6 - 0.0
30/06:00pm 18.1 15.1 7.5 50 5.4 NW 13 22 7 12 1012.3 1012.3 0.0
30/05:30pm 18.2 14.8 7.6 50 5.4 NW 15 30 8 16 1011.9 - 0.0
30/05:00pm 18.8 15.4 7.6 48 5.7 NW 15 22 8 12 1011.7 1011.7 0.0
30/04:30pm 19.8 15.4 7.5 45 6.3 NNW 20 33 11 18 1011.1 - 0.0
30/04:00pm 20.4 16.6 7.7 44 6.5 N 17 26 9 14 1010.7 1010.7 0.0
30/03:30pm 20.2 17.5 7.2 43 6.6 NNW 11 17 6 9 1010.6 - 0.0
30/03:00pm 20.7 17.2 7.3 42 6.9 NNW 15 24 8 13 1010.5 1010.5 0.0
30/02:30pm 21.1 18.1 7.7 42 6.9 NW 13 22 7 12 1010.7 - 0.0
30/02:00pm 22.2 18.4 7.6 39 7.6 NNW 17 28 9 15 1010.6 1010.6 0.0
30/01:30pm 22.3 18.1 7.3 38 7.8 NNW 19 30 10 16 1010.6 - 0.0
30/01:00pm 21.4 17.0 7.6 41 7.1 NNW 20 35 11 19 1010.9 1010.9 0.0
30/12:30pm 22.0 17.8 7.4 39 7.6 NNW 19 33 10 18 1011.3 - 0.0
30/12:00pm 22.1 18.6 8.6 42 7.1 NNW 17 26 9 14 1011.8 1011.8 0.0
30/11:30am 21.4 17.5 8.7 44 6.7 NW 19 35 10 19 1012.4 - 0.0
30/11:00am 21.0 17.6 9.3 47 6.2 NW 17 30 9 16 1012.9 1012.9 0.0
30/10:30am 20.0 16.0 9.0 49 5.8 NNW 20 32 11 17 1013.5 - 0.0
30/10:00am 19.8 16.4 9.1 50 5.6 N 17 24 9 13 1014.0 1014.0 0.0
30/09:30am 18.2 15.5 9.0 55 4.8 NNW 13 22 7 12 1014.2 - 0.0
30/09:00am 16.4 12.9 8.6 60 4.0 NNW 17 24 9 13 1014.4 1014.4 0.0
30/08:30am 15.4 11.8 8.2 62 3.6 N 17 28 9 15 1014.2 - 0.0
30/08:00am 14.6 10.8 7.6 63 3.5 NNW 17 24 9 13 1013.9 1013.9 0.0
30/07:30am 14.0 10.5 7.1 63 3.4 NNW 15 20 8 11 1013.8 - 0.0
30/07:00am 12.3 9.0 6.4 67 2.8 NNW 13 15 7 8 1013.5 1013.5 0.0
30/06:30am 12.7 9.8 6.3 65 3.0 N 11 17 6 9 1013.2 - 0.0
30/06:00am 12.3 9.4 6.4 67 2.8 N 11 15 6 8 1012.8 1012.8 0.0
30/05:30am 9.7 6.4 4.3 69 2.4 N 11 13 6 7 1012.5 - 0.0
30/05:00am 12.2 9.2 5.8 65 3.0 NW 11 15 6 8 1012.2 1012.2 0.0
30/04:30am 10.2 7.5 5.6 73 2.1 N 9 15 5 8 1012.0 - 0.0
30/04:00am 9.7 7.8 5.1 73 2.1 WSW 4 7 2 4 1011.9 1011.9 0.0
30/03:30am 10.4 8.9 5.2 70 2.4 W 2 7 1 4 1011.9 - 0.0
30/03:00am 11.0 9.6 3.8 61 3.2 CALM 0 6 0 3 1011.6 1011.6 0.0
30/02:30am 14.2 12.4 3.7 49 4.8 W 2 11 1 6 1011.4 - 0.0
30/02:00am 16.6 13.9 3.6 42 6.0 NNW 7 13 4 7 1010.7 1010.7 0.0
30/01:30am 17.0 13.5 3.7 41 6.2 N 11 17 6 9 1010.4 - 0.0
30/01:00am 13.6 11.0 4.2 53 4.3 NW 7 11 4 6 1010.6 1010.6 0.0
30/12:30am 12.2 9.6 4.2 58 3.6 NNW 7 13 4 7 1011.2 - 0.0
30/12:00am 13.0 11.5 3.1 51 4.4 CALM 0 2 0 1 1011.4 1011.4 0.0
 
Date/Time
EST
Tmp

°C
App
Tmp
°C
Dew
Point
°C
Rel
Hum
%
Delta-T

°C
Wind Press
QNH
hPa
Press
MSL
hPa
Rain
since
9 am
mm
Dir
 
Spd
km/h
Gust
km/h
Spd
kts
Gust
kts
29/11:30pm 16.0 12.4 3.1 42 5.9 NW 11 20 6 11 1011.4 - 0.0
29/11:00pm 16.9 13.3 3.2 40 6.3 NNW 11 20 6 11 1010.9 1010.9 0.0
29/10:30pm 17.4 12.7 3.3 39 6.5 N 17 24 9 13 1011.1 - 0.0
29/10:00pm 17.0 13.0 3.0 39 6.4 N 13 19 7 10 1011.1 1011.1 0.0
29/09:30pm 16.8 12.7 2.4 38 6.5 N 13 22 7 12 1011.2 - 0.0
29/09:00pm 16.9 13.2 2.1 37 6.6 N 11 19 6 10 1011.2 1011.2 0.0
29/08:30pm 17.0 13.1 1.4 35 6.9 N 11 17 6 9 1010.6 - 0.0
29/08:00pm 17.4 12.8 1.4 34 7.1 N 15 20 8 11 1010.4 1010.4 0.0

Latest Capital City Observations: Canberra | Sydney | Melbourne | Brisbane | Adelaide | Perth | Hobart | Darwin

Other Formats:

Comma delimited format used in spreadsheet applications
http://www.bom.gov.au/fwo/IDN60903/IDN60903.95937.axf

JavaScript Object Notation format (JSON) in row-major order
http://www.bom.gov.au/fwo/IDN60903/IDN60903.95937.json